LOCATION_NAME,SAMPLE COLLECTION TIME,DOSE EQUIVALENT RATE (nSv/h),GAMMA COUNT RATE R02 (CPM),GAMMA COUNT RATE R03 (CPM),GAMMA COUNT RATE R04 (CPM),GAMMA COUNT RATE R05 (CPM),GAMMA COUNT RATE R06 (CPM),GAMMA COUNT RATE R07 (CPM),GAMMA COUNT RATE R08 (CPM),GAMMA COUNT RATE R09 (CPM),STATUS
MD: BALTIMORE,01/01/2016 00:55:00,,1606.00,1029.00,290.00,161.00,93.00,114.00,69.00,28.00,APPROVED
MD: BALTIMORE,01/01/2016 01:55:00,,1617.00,1032.00,290.00,161.00,95.00,113.00,68.00,27.00,APPROVED
MD: BALTIMORE,01/01/2016 02:55:00,,1601.00,1041.00,291.00,159.00,94.00,113.00,70.00,28.00,APPROVED
MD: BALTIMORE,01/01/2016 03:56:00,,1614.00,1029.00,293.00,157.00,94.00,115.00,69.00,28.00,APPROVED
MD: BALTIMORE,01/01/2016 04:56:00,,1607.00,1030.00,291.00,156.00,93.00,114.00,71.00,27.00,APPROVED
MD: BALTIMORE,01/01/2016 05:56:00,,1605.00,1033.00,291.00,160.00,93.00,115.00,72.00,28.00,APPROVED
MD: BALTIMORE,01/01/2016 06:56:00,,1604.00,1038.00,292.00,160.00,95.00,114.00,69.00,28.00,APPROVED
MD: BALTIMORE,01/01/2016 07:56:00,,1603.00,1040.00,296.00,164.00,95.00,114.00,70.00,28.00,APPROVED
MD: BALTIMORE,01/01/2016 08:57:00,,1606.00,1045.00,296.00,163.00,95.00,114.00,69.00,28.00,APPROVED
MD: BALTIMORE,01/01/2016 09:57:00,,1615.00,1042.00,299.00,165.00,93.00,116.00,70.00,28.00,APPROVED
MD: BALTIMORE,01/01/2016 10:57:00,,1604.00,1037.00,296.00,160.00,93.00,118.00,71.00,28.00,APPROVED
MD: BALTIMORE,01/01/2016 11:57:00,,1592.00,1037.00,292.00,163.00,93.00,116.00,71.00,26.00,APPROVED
MD: BALTIMORE,01/01/2016 12:58:00,,1585.00,1020.00,292.00,158.00,92.00,113.00,71.00,29.00,APPROVED
MD: BALTIMORE,01/01/2016 13:58:00,,1587.00,1024.00,295.00,157.00,94.00,114.00,69.00,28.00,APPROVED
MD: BALTIMORE,01/01/2016 14:58:00,,1604.00,1039.00,294.00,161.00,95.00,113.00,71.00,29.00,APPROVED
MD: BALTIMORE,01/01/2016 15:58:00,,1593.00,1034.00,293.00,159.00,92.00,112.00,69.00,28.00,APPROVED
MD: BALTIMORE,01/01/2016 16:58:00,,1595.00,1022.00,291.00,158.00,93.00,111.00,70.00,28.00,APPROVED
MD: BALTIMORE,01/01/2016 17:59:00,,1585.00,1025.00,295.00,156.00,94.00,112.00,70.00,27.00,APPROVED
MD: BALTIMORE,01/01/2016 18:59:00,,1602.00,1028.00,290.00,158.00,94.00,113.00,69.00,28.00,APPROVED
MD: BALTIMORE,01/01/2016 19:59:00,,1592.00,1015.00,295.00,160.00,93.00,113.00,71.00,27.00,APPROVED
MD: BALTIMORE,01/01/2016 20:59:00,,1574.00,999.00,279.00,156.00,90.00,110.00,68.00,28.00,APPROVED
MD: BALTIMORE,01/01/2016 21:59:00,,1564.00,985.00,284.00,152.00,89.00,111.00,67.00,27.00,APPROVED
MD: BALTIMORE,01/01/2016 23:00:00,,1549.00,982.00,280.00,151.00,90.00,106.00,68.00,27.00,APPROVED
MD: BALTIMORE,01/02/2016 00:00:00,,1542.00,986.00,280.00,151.00,91.00,106.00,68.00,26.00,APPROVED
MD: BALTIMORE,01/02/2016 01:00:00,,1544.00,978.00,280.00,151.00,91.00,109.00,67.00,26.00,APPROVED
MD: BALTIMORE,01/02/2016 02:00:00,,1555.00,992.00,285.00,150.00,93.00,109.00,68.00,28.00,APPROVED
MD: BALTIMORE,01/02/2016 03:00:00,,1553.00,992.00,284.00,151.00,91.00,107.00,69.00,27.00,APPROVED
MD: BALTIMORE,01/02/2016 04:01:00,,1547.00,988.00,290.00,153.00,92.00,110.00,69.00,28.00,APPROVED
MD: BALTIMORE,01/02/2016 05:01:00,,1564.00,1002.00,289.00,157.00,90.00,109.00,71.00,28.00,APPROVED
MD: BALTIMORE,01/02/2016 06:01:00,,1578.00,1012.00,289.00,160.00,91.00,111.00,70.00,28.00,APPROVED
MD: BALTIMORE,01/02/2016 07:01:00,,1590.00,1031.00,295.00,164.00,94.00,114.00,74.00,28.00,APPROVED
MD: BALTIMORE,01/02/2016 08:01:00,,1600.00,1044.00,298.00,161.00,95.00,115.00,72.00,28.00,APPROVED
MD: BALTIMORE,01/02/2016 09:02:00,,1593.00,1048.00,296.00,166.00,94.00,115.00,74.00,29.00,APPROVED
MD: BALTIMORE,01/02/2016 10:02:00,,1601.00,1051.00,299.00,168.00,96.00,115.00,74.00,27.00,APPROVED
MD: BALTIMORE,01/02/2016 11:02:00,,1604.00,1059.00,296.00,164.00,96.00,117.00,73.00,29.00,APPROVED
MD: BALTIMORE,01/02/2016 12:02:00,,1618.00,1047.00,298.00,167.00,98.00,118.00,73.00,29.00,APPROVED
MD: BALTIMORE,01/02/2016 13:02:00,,1609.00,1063.00,298.00,168.00,95.00,117.00,72.00,30.00,APPROVED
MD: BALTIMORE,01/02/2016 14:03:00,,1621.00,1073.00,300.00,169.00,97.00,116.00,75.00,28.00,APPROVED
MD: BALTIMORE,01/02/2016 15:03:00,,1647.00,1069.00,305.00,170.00,97.00,116.00,72.00,29.00,APPROVED
MD: BALTIMORE,01/02/2016 16:03:00,,1667.00,1076.00,299.00,165.00,95.00,118.00,71.00,28.00,APPROVED
MD: BALTIMORE,01/02/2016 17:03:00,,1645.00,1049.00,297.00,161.00,95.00,114.00,69.00,28.00,APPROVED
MD: BALTIMORE,01/02/2016 18:04:00,,1625.00,1038.00,295.00,160.00,93.00,115.00,67.00,28.00,APPROVED
MD: BALTIMORE,01/02/2016 19:04:00,,1627.00,1030.00,291.00,155.00,93.00,114.00,68.00,29.00,APPROVED
MD: BALTIMORE,01/02/2016 20:04:00,,1615.00,1019.00,289.00,154.00,95.00,110.00,66.00,28.00,APPROVED
MD: BALTIMORE,01/02/2016 21:04:00,,1614.00,1011.00,290.00,151.00,92.00,109.00,64.00,27.00,APPROVED
MD: BALTIMORE,01/02/2016 22:04:00,,1596.00,1005.00,284.00,152.00,93.00,110.00,67.00,27.00,APPROVED
MD: BALTIMORE,01/02/2016 23:05:00,,1587.00,989.00,282.00,152.00,91.00,110.00,66.00,28.00,APPROVED
MD: BALTIMORE,01/03/2016 00:05:00,,1578.00,992.00,284.00,148.00,90.00,107.00,66.00,28.00,APPROVED
MD: BALTIMORE,01/03/2016 01:05:00,,1573.00,991.00,282.00,147.00,91.00,106.00,68.00,27.00,APPROVED
MD: BALTIMORE,01/03/2016 02:05:00,,1578.00,996.00,290.00,150.00,92.00,107.00,67.00,28.00,APPROVED
MD: BALTIMORE,01/03/2016 03:05:00,,1587.00,1006.00,285.00,152.00,91.00,110.00,69.00,27.00,APPROVED
MD: BALTIMORE,01/03/2016 04:06:00,,1596.00,1026.00,292.00,157.00,90.00,109.00,68.00,28.00,APPROVED
MD: BALTIMORE,01/03/2016 05:06:00,,1584.00,1022.00,291.00,158.00,92.00,112.00,68.00,27.00,APPROVED
MD: BALTIMORE,01/03/2016 06:06:00,,1587.00,1040.00,293.00,158.00,94.00,110.00,71.00,28.00,APPROVED
MD: BALTIMORE,01/03/2016 07:06:00,,1589.00,1033.00,297.00,160.00,95.00,113.00,70.00,28.00,APPROVED
MD: BALTIMORE,01/03/2016 08:06:00,,1594.00,1045.00,297.00,164.00,95.00,114.00,71.00,29.00,APPROVED
MD: BALTIMORE,01/03/2016 09:07:00,,1613.00,1058.00,302.00,172.00,98.00,117.00,73.00,28.00,APPROVED
MD: BALTIMORE,01/03/2016 10:07:00,,1605.00,1060.00,301.00,170.00,97.00,119.00,75.00,29.00,APPROVED
MD: BALTIMORE,01/03/2016 11:07:00,,1612.00,1066.00,301.00,167.00,97.00,117.00,73.00,29.00,APPROVED
MD: BALTIMORE,01/03/2016 12:07:00,,1605.00,1069.00,307.00,170.00,98.00,117.00,74.00,29.00,APPROVED
MD: BALTIMORE,01/03/2016 13:07:00,,1632.00,1079.00,303.00,175.00,98.00,121.00,76.00,29.00,APPROVED
MD: BALTIMORE,01/03/2016 14:08:00,,1641.00,1074.00,308.00,172.00,97.00,120.00,73.00,29.00,APPROVED
MD: BALTIMORE,01/03/2016 15:08:00,,1659.00,1074.00,307.00,170.00,97.00,116.00,75.00,30.00,APPROVED
MD: BALTIMORE,01/03/2016 16:08:00,,1661.00,1076.00,305.00,162.00,98.00,116.00,70.00,28.00,APPROVED
MD: BALTIMORE,01/03/2016 17:08:00,,1645.00,1043.00,296.00,156.00,94.00,116.00,69.00,28.00,APPROVED
MD: BALTIMORE,01/03/2016 18:08:00,,1649.00,1041.00,294.00,156.00,92.00,115.00,65.00,28.00,APPROVED
MD: BALTIMORE,01/03/2016 19:09:00,,1665.00,1041.00,295.00,152.00,94.00,115.00,67.00,28.00,APPROVED
MD: BALTIMORE,01/03/2016 20:09:00,,1656.00,1022.00,294.00,150.00,92.00,113.00,64.00,28.00,APPROVED
MD: BALTIMORE,01/03/2016 21:09:00,,1652.00,1028.00,295.00,150.00,93.00,111.00,65.00,27.00,APPROVED
MD: BALTIMORE,01/03/2016 22:09:00,,1658.00,1037.00,296.00,157.00,95.00,115.00,67.00,28.00,APPROVED
MD: BALTIMORE,01/03/2016 23:10:00,,1654.00,1067.00,295.00,161.00,95.00,114.00,73.00,28.00,APPROVED
MD: BALTIMORE,01/04/2016 00:10:00,,1641.00,1067.00,304.00,167.00,97.00,118.00,72.00,29.00,APPROVED
MD: BALTIMORE,01/04/2016 01:10:00,,1629.00,1067.00,304.00,170.00,96.00,120.00,72.00,29.00,APPROVED
MD: BALTIMORE,01/04/2016 02:10:00,,1646.00,1079.00,307.00,172.00,97.00,122.00,74.00,29.00,APPROVED
MD: BALTIMORE,01/04/2016 03:10:00,,1651.00,1097.00,309.00,174.00,101.00,121.00,75.00,28.00,APPROVED
MD: BALTIMORE,01/04/2016 04:11:00,,1662.00,1110.00,315.00,177.00,99.00,125.00,78.00,30.00,APPROVED
MD: BALTIMORE,01/04/2016 05:11:00,,1662.00,1105.00,317.00,180.00,101.00,124.00,76.00,28.00,APPROVED
MD: BALTIMORE,01/04/2016 06:11:00,,1665.00,1123.00,318.00,180.00,102.00,128.00,80.00,30.00,APPROVED
MD: BALTIMORE,01/04/2016 07:11:00,,1656.00,1117.00,319.00,180.00,101.00,130.00,80.00,29.00,APPROVED
MD: BALTIMORE,01/04/2016 08:11:00,,1656.00,1118.00,316.00,179.00,101.00,127.00,78.00,29.00,APPROVED
MD: BALTIMORE,01/04/2016 09:12:00,,1620.00,1078.00,311.00,175.00,99.00,120.00,74.00,30.00,APPROVED
MD: BALTIMORE,01/04/2016 10:12:00,,1592.00,1045.00,300.00,168.00,97.00,117.00,73.00,29.00,APPROVED
MD: BALTIMORE,01/04/2016 11:12:00,,1563.00,1010.00,289.00,157.00,93.00,113.00,69.00,28.00,APPROVED
MD: BALTIMORE,01/04/2016 12:12:00,,1542.00,997.00,290.00,153.00,93.00,107.00,71.00,28.00,APPROVED
MD: BALTIMORE,01/04/2016 13:13:00,,1550.00,992.00,285.00,149.00,90.00,108.00,69.00,27.00,APPROVED
MD: BALTIMORE,01/04/2016 14:13:00,,1537.00,986.00,282.00,150.00,92.00,108.00,69.00,27.00,APPROVED
MD: BALTIMORE,01/04/2016 15:13:00,,1544.00,993.00,287.00,151.00,91.00,109.00,71.00,27.00,APPROVED
MD: BALTIMORE,01/04/2016 16:13:00,,1542.00,975.00,277.00,152.00,91.00,104.00,69.00,27.00,APPROVED
MD: BALTIMORE,01/04/2016 17:13:00,,1539.00,962.00,273.00,144.00,86.00,102.00,66.00,26.00,APPROVED
MD: BALTIMORE,01/04/2016 18:14:00,,1544.00,967.00,274.00,144.00,87.00,105.00,67.00,27.00,APPROVED
MD: BALTIMORE,01/04/2016 19:14:00,,1533.00,948.00,274.00,144.00,89.00,103.00,66.00,26.00,APPROVED
MD: BALTIMORE,01/04/2016 20:14:00,,1535.00,958.00,276.00,144.00,89.00,104.00,65.00,26.00,APPROVED
MD: BALTIMORE,01/04/2016 21:14:00,,1525.00,954.00,274.00,145.00,87.00,104.00,65.00,27.00,APPROVED
MD: BALTIMORE,01/04/2016 22:14:00,,1493.00,937.00,269.00,139.00,87.00,100.00,67.00,28.00,APPROVED
MD: BALTIMORE,01/04/2016 23:15:00,,1501.00,945.00,271.00,144.00,88.00,102.00,68.00,27.00,APPROVED
MD: BALTIMORE,01/05/2016 00:15:00,,1482.00,948.00,271.00,142.00,87.00,100.00,67.00,27.00,APPROVED
MD: BALTIMORE,01/05/2016 01:15:00,,1482.00,930.00,274.00,146.00,86.00,99.00,68.00,26.00,APPROVED
MD: BALTIMORE,01/05/2016 02:15:00,,1464.00,931.00,272.00,145.00,88.00,102.00,67.00,26.00,APPROVED
MD: BALTIMORE,01/05/2016 03:15:00,,1462.00,937.00,272.00,144.00,88.00,101.00,69.00,27.00,APPROVED
MD: BALTIMORE,01/05/2016 04:16:00,,1450.00,931.00,265.00,149.00,85.00,102.00,67.00,27.00,APPROVED
MD: BALTIMORE,01/05/2016 05:16:00,,1445.00,933.00,267.00,146.00,86.00,100.00,68.00,27.00,APPROVED
MD: BALTIMORE,01/05/2016 06:16:00,,1436.00,927.00,268.00,145.00,86.00,104.00,67.00,27.00,APPROVED
MD: BALTIMORE,01/05/2016 07:16:00,,1434.00,921.00,269.00,143.00,88.00,102.00,68.00,26.00,APPROVED
MD: BALTIMORE,01/05/2016 08:16:00,,1437.00,925.00,272.00,147.00,86.00,103.00,69.00,27.00,APPROVED
MD: BALTIMORE,01/05/2016 09:17:00,,1449.00,921.00,269.00,146.00,86.00,104.00,71.00,26.00,APPROVED
MD: BALTIMORE,01/05/2016 10:17:00,,1447.00,932.00,269.00,150.00,85.00,102.00,69.00,27.00,APPROVED
MD: BALTIMORE,01/05/2016 11:17:00,,1457.00,938.00,272.00,145.00,88.00,104.00,67.00,28.00,APPROVED
MD: BALTIMORE,01/05/2016 12:17:00,,1449.00,936.00,272.00,146.00,87.00,103.00,68.00,26.00,APPROVED
MD: BALTIMORE,01/05/2016 13:09:00,,1459.00,935.00,271.00,145.00,87.00,102.00,67.00,27.00,APPROVED
MD: BALTIMORE,01/05/2016 14:16:00,,1444.00,915.00,265.00,138.00,85.00,97.00,66.00,26.00,APPROVED
MD: BALTIMORE,01/05/2016 15:16:00,,1473.00,932.00,266.00,144.00,88.00,101.00,67.00,26.00,APPROVED
MD: BALTIMORE,01/05/2016 16:16:00,,1494.00,950.00,271.00,148.00,88.00,102.00,68.00,26.00,APPROVED
MD: BALTIMORE,01/05/2016 17:16:00,,1532.00,961.00,272.00,145.00,90.00,101.00,67.00,25.00,APPROVED
MD: BALTIMORE,01/05/2016 18:17:00,,1551.00,963.00,277.00,146.00,89.00,105.00,66.00,27.00,APPROVED
MD: BALTIMORE,01/05/2016 19:17:00,,1553.00,972.00,272.00,143.00,86.00,101.00,65.00,26.00,APPROVED
MD: BALTIMORE,01/05/2016 20:17:00,,1548.00,964.00,271.00,139.00,86.00,102.00,64.00,27.00,APPROVED
MD: BALTIMORE,01/05/2016 21:17:00,,1547.00,953.00,271.00,139.00,90.00,101.00,64.00,26.00,APPROVED
MD: BALTIMORE,01/05/2016 22:17:00,,1542.00,958.00,269.00,143.00,88.00,103.00,66.00,26.00,APPROVED
MD: BALTIMORE,01/05/2016 23:18:00,,1529.00,958.00,271.00,145.00,88.00,102.00,66.00,27.00,APPROVED
MD: BALTIMORE,01/06/2016 00:18:00,,1518.00,961.00,274.00,147.00,87.00,105.00,66.00,25.00,APPROVED
MD: BALTIMORE,01/06/2016 01:18:00,,1517.00,964.00,274.00,149.00,90.00,105.00,67.00,27.00,APPROVED
MD: BALTIMORE,01/06/2016 02:18:00,,1531.00,981.00,280.00,151.00,90.00,107.00,67.00,27.00,APPROVED
MD: BALTIMORE,01/06/2016 03:18:00,,1533.00,994.00,279.00,157.00,93.00,108.00,71.00,28.00,APPROVED
MD: BALTIMORE,01/06/2016 05:19:00,,1543.00,1014.00,290.00,163.00,95.00,113.00,72.00,28.00,APPROVED
MD: BALTIMORE,01/06/2016 06:19:00,,1567.00,1044.00,298.00,169.00,97.00,117.00,76.00,28.00,APPROVED
MD: BALTIMORE,01/06/2016 07:19:00,,1586.00,1083.00,303.00,178.00,100.00,124.00,78.00,28.00,APPROVED
MD: BALTIMORE,01/06/2016 08:19:00,,1598.00,1108.00,314.00,187.00,100.00,126.00,80.00,30.00,APPROVED
MD: BALTIMORE,01/06/2016 09:20:00,,1604.00,1123.00,317.00,195.00,106.00,133.00,80.00,31.00,APPROVED
MD: BALTIMORE,01/06/2016 10:20:00,,1624.00,1139.00,321.00,198.00,104.00,130.00,82.00,31.00,APPROVED
MD: BALTIMORE,01/06/2016 11:20:00,,1614.00,1146.00,327.00,200.00,103.00,134.00,84.00,31.00,APPROVED
MD: BALTIMORE,01/06/2016 12:20:00,,1633.00,1181.00,335.00,205.00,110.00,139.00,87.00,33.00,APPROVED
MD: BALTIMORE,01/06/2016 13:20:00,,1648.00,1193.00,338.00,210.00,113.00,142.00,88.00,30.00,APPROVED
MD: BALTIMORE,01/06/2016 14:21:00,,1619.00,1145.00,329.00,199.00,107.00,135.00,82.00,32.00,APPROVED
MD: BALTIMORE,01/06/2016 15:21:00,,1613.00,1085.00,314.00,177.00,97.00,123.00,78.00,30.00,APPROVED
MD: BALTIMORE,01/06/2016 16:21:00,,1605.00,1053.00,295.00,164.00,95.00,116.00,72.00,29.00,APPROVED
MD: BALTIMORE,01/06/2016 17:21:00,,1596.00,997.00,286.00,152.00,92.00,107.00,66.00,28.00,APPROVED
MD: BALTIMORE,01/06/2016 18:21:00,,1622.00,1015.00,289.00,149.00,91.00,108.00,68.00,28.00,APPROVED
MD: BALTIMORE,01/06/2016 19:22:00,,1616.00,1024.00,285.00,151.00,91.00,107.00,68.00,28.00,APPROVED
MD: BALTIMORE,01/06/2016 20:22:00,,1587.00,1003.00,283.00,153.00,91.00,108.00,68.00,28.00,APPROVED
MD: BALTIMORE,01/06/2016 21:22:00,,1604.00,1012.00,287.00,154.00,92.00,108.00,67.00,28.00,APPROVED
MD: BALTIMORE,01/06/2016 22:22:00,,1592.00,1001.00,285.00,154.00,93.00,109.00,69.00,27.00,APPROVED
MD: BALTIMORE,01/06/2016 23:22:00,,1562.00,996.00,282.00,154.00,92.00,107.00,69.00,27.00,APPROVED
MD: BALTIMORE,01/07/2016 00:23:00,,1554.00,991.00,280.00,154.00,89.00,108.00,70.00,28.00,APPROVED
MD: BALTIMORE,01/07/2016 01:23:00,,1545.00,985.00,285.00,151.00,91.00,108.00,69.00,27.00,APPROVED
MD: BALTIMORE,01/07/2016 02:23:00,,1544.00,992.00,284.00,155.00,92.00,107.00,70.00,27.00,APPROVED
MD: BALTIMORE,01/07/2016 03:23:00,,1543.00,1007.00,286.00,159.00,94.00,112.00,72.00,28.00,APPROVED
MD: BALTIMORE,01/07/2016 04:24:00,,1565.00,1019.00,289.00,159.00,95.00,112.00,72.00,29.00,APPROVED
MD: BALTIMORE,01/07/2016 05:24:00,,1564.00,1037.00,293.00,164.00,95.00,116.00,74.00,29.00,APPROVED
MD: BALTIMORE,01/07/2016 06:24:00,,1577.00,1058.00,299.00,170.00,95.00,117.00,74.00,30.00,APPROVED
MD: BALTIMORE,01/07/2016 07:24:00,,1608.00,1087.00,309.00,178.00,99.00,125.00,75.00,28.00,APPROVED
MD: BALTIMORE,01/07/2016 08:24:00,,1619.00,1117.00,315.00,183.00,103.00,126.00,77.00,30.00,APPROVED
MD: BALTIMORE,01/07/2016 09:25:00,,1633.00,1128.00,321.00,187.00,102.00,129.00,80.00,30.00,APPROVED
MD: BALTIMORE,01/07/2016 10:25:00,,1657.00,1139.00,322.00,190.00,104.00,127.00,80.00,30.00,APPROVED
MD: BALTIMORE,01/07/2016 12:25:00,,1662.00,1135.00,323.00,190.00,102.00,126.00,81.00,29.00,APPROVED
MD: BALTIMORE,01/07/2016 13:25:00,,1716.00,1193.00,341.00,202.00,109.00,135.00,83.00,32.00,APPROVED
MD: BALTIMORE,01/07/2016 14:26:00,,1717.00,1203.00,341.00,197.00,108.00,137.00,83.00,31.00,APPROVED
MD: BALTIMORE,01/07/2016 15:26:00,,1673.00,1114.00,319.00,182.00,102.00,124.00,77.00,31.00,APPROVED
MD: BALTIMORE,01/07/2016 16:26:00,,1631.00,1065.00,303.00,166.00,94.00,116.00,72.00,28.00,APPROVED
MD: BALTIMORE,01/07/2016 17:26:00,,1597.00,1014.00,289.00,153.00,91.00,110.00,70.00,28.00,APPROVED
MD: BALTIMORE,01/07/2016 18:26:00,,1590.00,996.00,287.00,153.00,90.00,109.00,69.00,28.00,APPROVED
MD: BALTIMORE,01/07/2016 19:27:00,,1593.00,1004.00,283.00,152.00,90.00,108.00,68.00,27.00,APPROVED
MD: BALTIMORE,01/07/2016 20:27:00,,1598.00,1011.00,290.00,153.00,91.00,110.00,66.00,29.00,APPROVED
MD: BALTIMORE,01/07/2016 21:27:00,,1609.00,1011.00,288.00,151.00,92.00,111.00,66.00,29.00,APPROVED
MD: BALTIMORE,01/07/2016 23:27:00,,1641.00,1041.00,299.00,163.00,93.00,115.00,71.00,29.00,APPROVED
MD: BALTIMORE,01/08/2016 00:28:00,,1644.00,1070.00,301.00,165.00,94.00,116.00,73.00,29.00,APPROVED
MD: BALTIMORE,01/08/2016 01:28:00,,1646.00,1083.00,309.00,169.00,99.00,120.00,74.00,28.00,APPROVED
MD: BALTIMORE,01/08/2016 02:28:00,,1667.00,1110.00,312.00,181.00,101.00,124.00,75.00,30.00,APPROVED
MD: BALTIMORE,01/08/2016 03:28:00,,1682.00,1133.00,321.00,182.00,98.00,126.00,77.00,29.00,APPROVED
MD: BALTIMORE,01/08/2016 04:28:00,,1704.00,1156.00,325.00,186.00,104.00,131.00,78.00,30.00,APPROVED
MD: BALTIMORE,01/08/2016 05:29:00,,1661.00,1115.00,317.00,184.00,99.00,129.00,76.00,29.00,APPROVED
MD: BALTIMORE,01/08/2016 06:29:00,,1642.00,1098.00,312.00,174.00,98.00,129.00,75.00,30.00,APPROVED
MD: BALTIMORE,01/08/2016 07:29:00,,1667.00,1097.00,313.00,175.00,101.00,123.00,73.00,31.00,APPROVED
MD: BALTIMORE,01/08/2016 08:29:00,,1640.00,1073.00,302.00,169.00,97.00,119.00,74.00,28.00,APPROVED
MD: BALTIMORE,01/08/2016 09:29:00,,1629.00,1066.00,303.00,168.00,98.00,119.00,75.00,29.00,APPROVED
MD: BALTIMORE,01/08/2016 10:30:00,,1637.00,1077.00,304.00,171.00,97.00,121.00,71.00,30.00,APPROVED
MD: BALTIMORE,01/08/2016 12:30:00,,1678.00,1136.00,324.00,187.00,104.00,129.00,77.00,30.00,APPROVED
MD: BALTIMORE,01/08/2016 13:30:00,,1697.00,1156.00,324.00,186.00,106.00,129.00,79.00,30.00,APPROVED
MD: BALTIMORE,01/08/2016 14:31:00,,1720.00,1181.00,331.00,193.00,107.00,136.00,80.00,30.00,APPROVED
MD: BALTIMORE,01/08/2016 15:31:00,,1736.00,1185.00,334.00,197.00,105.00,135.00,81.00,30.00,APPROVED
MD: BALTIMORE,01/08/2016 16:31:00,,1708.00,1154.00,326.00,187.00,103.00,131.00,76.00,31.00,APPROVED
MD: BALTIMORE,01/08/2016 18:31:00,,1684.00,1118.00,319.00,180.00,101.00,124.00,75.00,29.00,APPROVED
MD: BALTIMORE,01/08/2016 19:32:00,,1672.00,1099.00,316.00,175.00,97.00,122.00,73.00,29.00,APPROVED
MD: BALTIMORE,01/08/2016 20:32:00,,1646.00,1074.00,306.00,168.00,98.00,119.00,73.00,29.00,APPROVED
MD: BALTIMORE,01/08/2016 21:32:00,,1635.00,1057.00,302.00,167.00,97.00,117.00,71.00,29.00,APPROVED
MD: BALTIMORE,01/08/2016 22:32:00,,1625.00,1054.00,303.00,162.00,94.00,112.00,70.00,29.00,APPROVED
MD: BALTIMORE,01/08/2016 23:32:00,,1640.00,1057.00,301.00,159.00,95.00,115.00,71.00,29.00,APPROVED
MD: BALTIMORE,01/09/2016 00:33:00,,1667.00,1066.00,307.00,162.00,96.00,116.00,71.00,27.00,APPROVED
MD: BALTIMORE,01/09/2016 01:33:00,,1673.00,1081.00,307.00,170.00,96.00,120.00,70.00,30.00,APPROVED
MD: BALTIMORE,01/09/2016 02:33:00,,1673.00,1090.00,307.00,169.00,98.00,120.00,73.00,28.00,APPROVED
MD: BALTIMORE,01/09/2016 03:33:00,,1652.00,1076.00,309.00,173.00,97.00,120.00,73.00,30.00,APPROVED
MD: BALTIMORE,01/09/2016 04:33:00,,1624.00,1059.00,301.00,165.00,95.00,117.00,71.00,29.00,APPROVED
MD: BALTIMORE,01/09/2016 05:34:00,,1618.00,1046.00,298.00,162.00,92.00,115.00,68.00,29.00,APPROVED
MD: BALTIMORE,01/09/2016 06:34:00,,1610.00,1038.00,288.00,159.00,94.00,111.00,68.00,27.00,APPROVED
MD: BALTIMORE,01/09/2016 07:34:00,,1608.00,1033.00,294.00,158.00,94.00,113.00,69.00,28.00,APPROVED
MD: BALTIMORE,01/09/2016 09:34:00,,1637.00,1060.00,300.00,166.00,95.00,115.00,71.00,28.00,APPROVED
MD: BALTIMORE,01/09/2016 10:35:00,,1655.00,1061.00,301.00,170.00,94.00,117.00,73.00,30.00,APPROVED
MD: BALTIMORE,01/09/2016 11:35:00,,1642.00,1058.00,302.00,166.00,96.00,114.00,71.00,28.00,APPROVED
MD: BALTIMORE,01/09/2016 12:35:00,,1631.00,1044.00,299.00,161.00,95.00,115.00,69.00,28.00,APPROVED
MD: BALTIMORE,01/09/2016 13:35:00,,1634.00,1052.00,301.00,164.00,96.00,118.00,69.00,27.00,APPROVED
MD: BALTIMORE,01/09/2016 14:35:00,,1645.00,1059.00,302.00,164.00,96.00,115.00,70.00,29.00,APPROVED
MD: BALTIMORE,01/09/2016 15:36:00,,1635.00,1055.00,304.00,166.00,95.00,115.00,69.00,27.00,APPROVED
MD: BALTIMORE,01/09/2016 16:36:00,,1629.00,1051.00,297.00,160.00,94.00,113.00,67.00,29.00,APPROVED
MD: BALTIMORE,01/09/2016 17:36:00,,1634.00,1030.00,296.00,158.00,95.00,117.00,69.00,27.00,APPROVED
MD: BALTIMORE,01/09/2016 18:36:00,,1631.00,1041.00,299.00,160.00,94.00,116.00,69.00,28.00,APPROVED
MD: BALTIMORE,01/09/2016 19:37:00,,1640.00,1044.00,299.00,157.00,95.00,113.00,69.00,28.00,APPROVED
MD: BALTIMORE,01/09/2016 20:37:00,,1640.00,1030.00,294.00,158.00,93.00,115.00,67.00,28.00,APPROVED
MD: BALTIMORE,01/09/2016 21:37:00,,1637.00,1025.00,291.00,154.00,93.00,116.00,65.00,28.00,APPROVED
MD: BALTIMORE,01/09/2016 22:37:00,,1625.00,1029.00,290.00,154.00,91.00,113.00,67.00,28.00,APPROVED
MD: BALTIMORE,01/09/2016 23:37:00,,1626.00,1038.00,295.00,161.00,94.00,114.00,67.00,28.00,APPROVED
MD: BALTIMORE,01/10/2016 00:38:00,,1590.00,998.00,289.00,151.00,92.00,111.00,64.00,28.00,APPROVED
MD: BALTIMORE,01/10/2016 01:38:00,,1578.00,979.00,280.00,145.00,90.00,107.00,62.00,27.00,APPROVED
MD: BALTIMORE,01/10/2016 02:38:00,,1593.00,992.00,279.00,148.00,90.00,107.00,64.00,27.00,APPROVED
MD: BALTIMORE,01/10/2016 03:38:00,,1606.00,1009.00,288.00,151.00,91.00,108.00,66.00,28.00,APPROVED
MD: BALTIMORE,01/10/2016 04:38:00,,1687.00,1070.00,302.00,165.00,93.00,117.00,68.00,27.00,APPROVED
MD: BALTIMORE,01/10/2016 05:39:00,,1670.00,1060.00,298.00,155.00,94.00,112.00,66.00,27.00,APPROVED
MD: BALTIMORE,01/10/2016 06:39:00,,1640.00,1023.00,291.00,149.00,94.00,108.00,65.00,27.00,APPROVED
MD: BALTIMORE,01/10/2016 07:39:00,,1677.00,1052.00,298.00,156.00,91.00,113.00,68.00,27.00,APPROVED
MD: BALTIMORE,01/10/2016 08:39:00,,1685.00,1058.00,297.00,154.00,93.00,112.00,64.00,28.00,APPROVED
MD: BALTIMORE,01/10/2016 09:39:00,,1677.00,1044.00,293.00,154.00,92.00,112.00,65.00,27.00,APPROVED
MD: BALTIMORE,01/10/2016 10:40:00,,1627.00,1002.00,284.00,149.00,90.00,109.00,61.00,28.00,APPROVED
MD: BALTIMORE,01/10/2016 11:40:00,,1584.00,972.00,277.00,139.00,85.00,103.00,61.00,27.00,APPROVED
MD: BALTIMORE,01/10/2016 12:40:00,,1576.00,961.00,272.00,137.00,86.00,105.00,59.00,28.00,APPROVED
MD: BALTIMORE,01/10/2016 13:40:00,,1581.00,959.00,274.00,141.00,87.00,102.00,59.00,27.00,APPROVED
MD: BALTIMORE,01/10/2016 14:40:00,,1598.00,978.00,279.00,141.00,89.00,105.00,59.00,27.00,APPROVED
MD: BALTIMORE,01/10/2016 15:41:00,,1596.00,979.00,278.00,144.00,89.00,106.00,63.00,27.00,APPROVED
MD: BALTIMORE,01/10/2016 16:41:00,,1606.00,988.00,283.00,146.00,88.00,108.00,63.00,27.00,APPROVED
MD: BALTIMORE,01/10/2016 17:41:00,,1628.00,1017.00,290.00,148.00,91.00,110.00,66.00,28.00,APPROVED
MD: BALTIMORE,01/10/2016 18:41:00,,1652.00,1042.00,295.00,155.00,93.00,114.00,64.00,27.00,APPROVED
MD: BALTIMORE,01/10/2016 19:41:00,,1664.00,1054.00,298.00,161.00,94.00,115.00,69.00,28.00,APPROVED
MD: BALTIMORE,01/10/2016 20:42:00,,1707.00,1086.00,306.00,166.00,95.00,119.00,68.00,27.00,APPROVED
MD: BALTIMORE,01/10/2016 21:42:00,,2038.00,1367.00,372.00,205.00,114.00,147.00,82.00,32.00,APPROVED
MD: BALTIMORE,01/10/2016 22:42:00,,1821.00,1210.00,343.00,186.00,105.00,136.00,77.00,31.00,APPROVED
MD: BALTIMORE,01/10/2016 23:42:00,,1695.00,1100.00,316.00,177.00,99.00,124.00,74.00,29.00,APPROVED
MD: BALTIMORE,01/11/2016 00:43:00,,1629.00,1057.00,306.00,163.00,97.00,115.00,71.00,29.00,APPROVED
MD: BALTIMORE,01/11/2016 01:43:00,,1589.00,1028.00,296.00,160.00,95.00,112.00,70.00,28.00,APPROVED
MD: BALTIMORE,01/11/2016 02:43:00,,1587.00,1008.00,287.00,157.00,92.00,112.00,70.00,28.00,APPROVED
MD: BALTIMORE,01/11/2016 03:43:00,,1570.00,1000.00,284.00,156.00,93.00,111.00,68.00,29.00,APPROVED
MD: BALTIMORE,01/11/2016 04:43:00,,1572.00,992.00,286.00,152.00,92.00,108.00,70.00,27.00,APPROVED
MD: BALTIMORE,01/11/2016 05:44:00,,1560.00,999.00,283.00,155.00,91.00,108.00,70.00,26.00,APPROVED